TimeCST,TemperatureF,Dew PointF,Humidity,Sea Level PressureIn,VisibilityMPH,Wind Direction,Wind SpeedMPH,Gust SpeedMPH,PrecipitationIn,Events,Conditions,WindDirDegrees,DateUTC
12:52 AM,28.9,21.0,72,30.50,10.0,Calm,Calm,-,N/A,,Clear,0,2012-11-16 06:52:00
1:52 AM,23.0,19.9,88,30.51,10.0,WSW,3.5,-,N/A,,Clear,240,2012-11-16 07:52:00
2:52 AM,21.9,19.0,89,30.51,10.0,Calm,Calm,-,N/A,,Clear,0,2012-11-16 08:52:00
3:52 AM,23.0,19.9,88,30.50,10.0,Calm,Calm,-,N/A,,Clear,0,2012-11-16 09:52:00
4:52 AM,24.1,19.9,84,30.49,10.0,Calm,Calm,-,N/A,,Clear,0,2012-11-16 10:52:00
5:52 AM,21.0,18.0,88,30.48,10.0,Calm,Calm,-,N/A,,Clear,0,2012-11-16 11:52:00
6:52 AM,19.9,16.0,85,30.49,10.0,Calm,Calm,-,N/A,,Clear,0,2012-11-16 12:52:00
7:52 AM,19.9,17.1,89,30.50,10.0,Calm,Calm,-,N/A,,Clear,0,2012-11-16 13:52:00
8:52 AM,27.0,21.0,78,30.50,10.0,Calm,Calm,-,N/A,,Clear,0,2012-11-16 14:52:00
9:52 AM,32.0,24.1,73,30.51,10.0,SSE,5.8,-,N/A,,Clear,150,2012-11-16 15:52:00
10:52 AM,36.0,25.0,64,30.50,10.0,SE,6.9,-,N/A,,Clear,140,2012-11-16 16:52:00
11:52 AM,42.1,28.0,58,30.46,10.0,SSE,5.8,-,N/A,,Clear,160,2012-11-16 17:52:00
12:52 PM,46.0,30.0,54,30.42,10.0,SE,9.2,-,N/A,,Clear,130,2012-11-16 18:52:00
1:52 PM,48.9,30.9,50,30.38,10.0,SE,13.8,-,N/A,,Clear,140,2012-11-16 19:52:00
2:52 PM,51.1,32.0,48,30.35,10.0,SSE,12.7,-,N/A,,Clear,160,2012-11-16 20:52:00
3:52 PM,51.1,32.0,48,30.35,10.0,SSE,13.8,-,N/A,,Clear,160,2012-11-16 21:52:00
4:52 PM,46.9,32.0,56,30.33,10.0,SSE,9.2,-,N/A,,Clear,150,2012-11-16 22:52:00
5:52 PM,44.1,30.9,60,30.32,10.0,SSE,8.1,-,N/A,,Clear,150,2012-11-16 23:52:00
6:52 PM,39.0,30.0,70,30.32,10.0,SE,10.4,-,N/A,,Clear,130,2012-11-17 00:52:00
7:52 PM,36.0,30.0,79,30.31,10.0,SE,10.4,-,N/A,,Clear,130,2012-11-17 01:52:00
8:52 PM,36.0,30.0,79,30.30,10.0,ESE,8.1,-,N/A,,Clear,110,2012-11-17 02:52:00
9:52 PM,36.0,30.0,79,30.31,10.0,ESE,8.1,-,N/A,,Clear,110,2012-11-17 03:52:00
10:52 PM,36.0,30.0,79,30.31,10.0,ESE,10.4,-,N/A,,Clear,110,2012-11-17 04:52:00
11:52 PM,32.0,28.0,85,30.30,10.0,ESE,5.8,-,N/A,,Clear,110,2012-11-17 05:52:00